Time,TemperatureF,DewpointF,PressureIn,WindDirection,WindDirectionDegrees,WindSpeedMPH,WindSpeedGustMPH,Humidity,HourlyPrecipIn,Conditions,Clouds,dailyrainin,SoftwareType,DateUTC
2013-01-14 00:03:00,46.4,45.9,29.92,NE,45,6.7,-999.0,98,-99.99,,,0.00,Acu-Link.com,2013-01-14 06:03:00,
2013-01-14 00:18:00,46.0,45.5,29.92,WNW,292,3.1,-999.0,98,-99.99,,,0.01,Acu-Link.com,2013-01-14 06:18:00,
2013-01-14 00:34:00,46.2,45.7,29.92,ESE,112,5.1,-999.0,98,-99.99,,,0.01,Acu-Link.com,2013-01-14 06:34:00,
2013-01-14 00:49:00,46.2,45.7,29.91,NNE,22,7.4,-999.0,98,-99.99,,,0.01,Acu-Link.com,2013-01-14 06:49:00,
2013-01-14 01:04:00,46.0,45.5,29.90,NE,45,4.3,-999.0,98,-99.99,,,0.01,Acu-Link.com,2013-01-14 07:04:00,
2013-01-14 01:19:00,46.0,45.5,29.90,North,0,5.8,-999.0,98,-99.99,,,0.01,Acu-Link.com,2013-01-14 07:19:00,
2013-01-14 01:35:00,46.0,45.5,29.91,NE,45,6.7,-999.0,98,-99.99,,,0.01,Acu-Link.com,2013-01-14 07:35:00,
2013-01-14 01:50:00,46.0,45.5,29.91,NE,45,7.4,-999.0,98,-99.99,,,0.01,Acu-Link.com,2013-01-14 07:50:00,
2013-01-14 02:05:00,45.9,45.3,29.90,ENE,67,9.8,-999.0,98,-99.99,,,0.01,Acu-Link.com,2013-01-14 08:05:00,
2013-01-14 02:21:00,45.3,44.8,29.90,NNE,22,3.1,-999.0,98,-99.99,,,0.01,Acu-Link.com,2013-01-14 08:21:00,
2013-01-14 02:36:00,45.3,44.8,29.90,East,90,7.4,-999.0,98,-99.99,,,0.01,Acu-Link.com,2013-01-14 08:36:00,
2013-01-14 02:51:00,44.8,44.2,29.90,ESE,112,3.8,-999.0,98,-99.99,,,0.01,Acu-Link.com,2013-01-14 08:51:00,
2013-01-14 03:12:00,45.0,44.4,29.91,ESE,112,4.3,-999.0,98,-99.99,,,0.01,Acu-Link.com,2013-01-14 09:12:00,
2013-01-14 03:28:00,44.6,44.1,29.89,North,0,3.8,-999.0,98,-99.99,,,0.08,Acu-Link.com,2013-01-14 09:28:00,
2013-01-14 03:43:00,44.4,43.9,29.87,East,90,4.3,-999.0,98,-99.99,,,0.09,Acu-Link.com,2013-01-14 09:43:00,
2013-01-14 03:58:00,44.1,43.5,29.88,East,90,4.7,-999.0,98,-99.99,,,0.12,Acu-Link.com,2013-01-14 09:58:00,
2013-01-14 04:13:00,43.9,43.4,29.89,ENE,67,3.8,-999.0,98,-99.99,,,0.65,Acu-Link.com,2013-01-14 10:13:00,
2013-01-14 04:29:00,43.9,43.4,29.89,NNE,22,4.7,-999.0,98,-99.99,,,0.76,Acu-Link.com,2013-01-14 10:29:00,
2013-01-14 04:44:00,43.7,43.2,29.87,NE,45,5.1,-999.0,98,-99.99,,,0.86,Acu-Link.com,2013-01-14 10:44:00,
2013-01-14 04:59:00,43.9,43.4,29.88,NNE,22,3.8,-999.0,98,-99.99,,,0.96,Acu-Link.com,2013-01-14 10:59:00,
2013-01-14 05:15:00,43.9,43.4,29.89,ESE,112,6.3,-999.0,98,-99.99,,,1.05,Acu-Link.com,2013-01-14 11:15:00,
2013-01-14 05:30:00,43.9,43.4,29.88,ESE,112,3.8,-999.0,98,-99.99,,,1.05,Acu-Link.com,2013-01-14 11:30:00,
2013-01-14 05:45:00,43.9,43.4,29.88,ESE,112,6.3,-999.0,98,-99.99,,,1.05,Acu-Link.com,2013-01-14 11:45:00,
2013-01-14 06:01:00,44.1,43.5,29.89,ESE,112,2.7,-999.0,98,-99.99,,,1.05,Acu-Link.com,2013-01-14 12:01:00,
2013-01-14 06:16:00,44.1,43.5,29.89,ENE,67,4.3,-999.0,98,-99.99,,,1.05,Acu-Link.com,2013-01-14 12:16:00,
2013-01-14 06:31:00,44.2,43.7,29.90,NE,45,3.8,-999.0,98,-99.99,,,1.07,Acu-Link.com,2013-01-14 12:31:00,
2013-01-14 06:47:00,44.2,43.7,29.89,East,90,5.1,-999.0,98,-99.99,,,1.08,Acu-Link.com,2013-01-14 12:47:00,
2013-01-14 07:02:00,44.4,43.9,29.89,East,90,3.8,-999.0,98,-99.99,,,1.08,Acu-Link.com,2013-01-14 13:02:00,
2013-01-14 07:17:00,44.6,44.1,29.89,East,90,4.7,-999.0,98,-99.99,,,1.08,Acu-Link.com,2013-01-14 13:17:00,
2013-01-14 07:32:00,44.6,44.1,29.90,ESE,112,7.8,-999.0,98,-99.99,,,1.08,Acu-Link.com,2013-01-14 13:32:00,
2013-01-14 07:47:00,44.8,44.2,29.90,NNE,22,3.8,-999.0,98,-99.99,,,1.08,Acu-Link.com,2013-01-14 13:47:00,
2013-01-14 08:03:00,45.0,44.4,29.90,East,90,4.7,-999.0,98,-99.99,,,1.08,Acu-Link.com,2013-01-14 14:03:00,
2013-01-14 08:18:00,45.1,44.6,29.92,ENE,67,2.7,-999.0,98,-99.99,,,1.08,Acu-Link.com,2013-01-14 14:18:00,
2013-01-14 08:33:00,45.3,44.8,29.92,ENE,67,4.3,-999.0,98,-99.99,,,1.08,Acu-Link.com,2013-01-14 14:33:00,
2013-01-14 08:49:00,45.5,45.0,29.92,NNE,22,3.1,-999.0,98,-99.99,,,1.08,Acu-Link.com,2013-01-14 14:49:00,
2013-01-14 09:04:00,45.7,45.1,29.93,NE,45,3.1,-999.0,98,-99.99,,,1.08,Acu-Link.com,2013-01-14 15:04:00,
2013-01-14 09:19:00,45.9,45.3,29.93,NE,45,3.1,-999.0,98,-99.99,,,1.08,Acu-Link.com,2013-01-14 15:19:00,
2013-01-14 09:35:00,45.9,45.3,29.93,North,0,3.8,-999.0,98,-99.99,,,1.08,Acu-Link.com,2013-01-14 15:35:00,
2013-01-14 09:50:00,46.0,45.5,29.93,NE,45,2.7,-999.0,98,-99.99,,,1.09,Acu-Link.com,2013-01-14 15:50:00,
2013-01-14 10:05:00,46.2,45.7,29.93,NE,45,4.7,-999.0,98,-99.99,,,1.09,Acu-Link.com,2013-01-14 16:05:00,
2013-01-14 10:20:00,46.2,45.7,29.93,NNE,22,2.2,-999.0,98,-99.99,,,1.11,Acu-Link.com,2013-01-14 16:20:00,
2013-01-14 10:36:00,46.4,45.9,29.93,North,0,3.8,-999.0,98,-99.99,,,1.11,Acu-Link.com,2013-01-14 16:36:00,
2013-01-14 10:51:00,46.6,46.0,29.93,ENE,67,3.1,-999.0,98,-99.99,,,1.11,Acu-Link.com,2013-01-14 16:51:00,
2013-01-14 11:06:00,46.4,45.9,29.94,NNE,22,4.3,-999.0,98,-99.99,,,1.12,Acu-Link.com,2013-01-14 17:06:00,
2013-01-14 11:22:00,46.4,45.9,29.93,NNE,22,4.3,-999.0,98,-99.99,,,1.12,Acu-Link.com,2013-01-14 17:22:00,
2013-01-14 11:37:00,46.6,46.0,29.92,North,0,2.2,-999.0,98,-99.99,,,1.12,Acu-Link.com,2013-01-14 17:37:00,
2013-01-14 11:52:00,46.0,45.5,29.91,NE,45,5.8,-999.0,98,-99.99,,,1.12,Acu-Link.com,2013-01-14 17:52:00,
2013-01-14 12:08:00,46.0,45.5,29.91,NNE,22,7.8,-999.0,98,-99.99,,,1.13,Acu-Link.com,2013-01-14 18:08:00,
2013-01-14 12:23:00,46.0,45.5,29.91,NE,45,3.8,-999.0,98,-99.99,,,1.13,Acu-Link.com,2013-01-14 18:23:00,
2013-01-14 12:38:00,46.0,45.5,29.91,North,0,5.1,-999.0,98,-99.99,,,1.13,Acu-Link.com,2013-01-14 18:38:00,
2013-01-14 12:53:00,45.5,45.0,29.91,East,90,2.7,-999.0,98,-99.99,,,1.14,Acu-Link.com,2013-01-14 18:53:00,
2013-01-14 13:09:00,45.5,45.0,29.92,NNW,337,4.7,-999.0,98,-99.99,,,1.14,Acu-Link.com,2013-01-14 19:09:00,
2013-01-14 13:24:00,44.8,44.2,29.91,North,0,11.4,-999.0,98,-99.99,,,1.14,Acu-Link.com,2013-01-14 19:24:00,
2013-01-14 13:39:00,44.6,44.1,29.91,NE,45,7.4,-999.0,98,-99.99,,,1.21,Acu-Link.com,2013-01-14 19:39:00,
2013-01-14 13:55:00,43.5,43.0,29.92,NNE,22,11.0,-999.0,98,-99.99,,,1.24,Acu-Link.com,2013-01-14 19:55:00,
2013-01-14 14:10:00,43.2,42.6,29.93,NNW,337,4.7,-999.0,98,-99.99,,,1.45,Acu-Link.com,2013-01-14 20:10:00,
2013-01-14 14:25:00,42.6,42.1,29.93,NNE,22,4.7,-999.0,98,-99.99,,,1.51,Acu-Link.com,2013-01-14 20:25:00,
2013-01-14 14:41:00,42.1,41.6,29.94,NNE,22,7.8,-999.0,98,-99.99,,,1.51,Acu-Link.com,2013-01-14 20:41:00,
2013-01-14 14:56:00,40.8,40.3,29.95,NW,315,6.7,-999.0,98,-99.99,,,1.52,Acu-Link.com,2013-01-14 20:56:00,
2013-01-14 15:11:00,40.3,39.8,29.95,NNE,22,7.8,-999.0,98,-99.99,,,1.52,Acu-Link.com,2013-01-14 21:11:00,
2013-01-14 15:26:00,39.9,39.4,29.94,East,90,11.9,-999.0,98,-99.99,,,1.52,Acu-Link.com,2013-01-14 21:26:00,
2013-01-14 15:42:00,39.4,38.9,29.96,NNE,22,8.9,-999.0,98,-99.99,,,1.54,Acu-Link.com,2013-01-14 21:42:00,
2013-01-14 15:57:00,39.7,39.2,29.97,NNE,22,8.9,-999.0,98,-99.99,,,1.62,Acu-Link.com,2013-01-14 21:57:00,
2013-01-14 16:12:00,37.9,37.4,29.96,NE,45,8.9,-999.0,98,-99.99,,,1.83,Acu-Link.com,2013-01-14 22:12:00,
2013-01-14 16:28:00,37.0,36.5,29.96,NNE,22,9.8,-999.0,98,-99.99,,,2.14,Acu-Link.com,2013-01-14 22:28:00,
2013-01-14 16:43:00,37.4,36.9,29.96,ESE,112,2.2,-999.0,98,-99.99,,,2.25,Acu-Link.com,2013-01-14 22:43:00,
2013-01-14 16:58:00,37.9,37.4,29.94,ESE,112,7.4,-999.0,98,-99.99,,,2.40,Acu-Link.com,2013-01-14 22:58:00,
2013-01-14 17:14:00,38.1,37.6,29.95,NE,45,4.3,-999.0,98,-99.99,,,2.46,Acu-Link.com,2013-01-14 23:14:00,
2013-01-14 17:29:00,38.1,37.6,29.97,East,90,4.7,-999.0,98,-99.99,,,2.47,Acu-Link.com,2013-01-14 23:29:00,
2013-01-14 17:44:00,38.5,38.0,29.97,North,0,3.1,-999.0,98,-99.99,,,2.50,Acu-Link.com,2013-01-14 23:44:00,
2013-01-14 17:59:00,38.7,38.1,29.97,North,0,4.3,-999.0,98,-99.99,,,2.51,Acu-Link.com,2013-01-14 23:59:00,
2013-01-14 18:15:00,38.7,38.1,29.97,NE,45,2.7,-999.0,98,-99.99,,,2.53,Acu-Link.com,2013-01-15 00:15:00,
2013-01-14 18:30:00,38.5,38.0,29.98,NNE,22,2.7,-999.0,98,-99.99,,,2.54,Acu-Link.com,2013-01-15 00:30:00,
2013-01-14 18:45:00,38.7,38.1,29.98,NE,45,6.3,-999.0,98,-99.99,,,2.57,Acu-Link.com,2013-01-15 00:45:00,
2013-01-14 19:00:00,38.7,38.1,29.97,NNE,22,3.1,-999.0,98,-99.99,,,2.58,Acu-Link.com,2013-01-15 01:00:00,
2013-01-14 19:16:00,38.5,38.0,29.97,North,0,4.3,-999.0,98,-99.99,,,2.59,Acu-Link.com,2013-01-15 01:16:00,
2013-01-14 19:31:00,38.5,38.0,29.96,NE,45,4.7,-999.0,98,-99.99,,,2.59,Acu-Link.com,2013-01-15 01:31:00,
2013-01-14 19:46:00,38.8,38.3,29.97,NNE,22,5.1,-999.0,98,-99.99,,,2.59,Acu-Link.com,2013-01-15 01:46:00,
2013-01-14 20:02:00,39.0,38.5,29.97,NE,45,3.8,-999.0,98,-99.99,,,2.59,Acu-Link.com,2013-01-15 02:02:00,
2013-01-14 20:17:00,38.8,38.3,29.95,ENE,67,4.7,-999.0,98,-99.99,,,2.59,Acu-Link.com,2013-01-15 02:17:00,
2013-01-14 20:32:00,38.8,38.3,29.94,ENE,67,5.1,-999.0,98,-99.99,,,2.59,Acu-Link.com,2013-01-15 02:32:00,
2013-01-14 20:48:00,39.0,38.5,29.94,NNE,22,3.1,-999.0,98,-99.99,,,2.59,Acu-Link.com,2013-01-15 02:48:00,
2013-01-14 21:03:00,39.0,38.5,29.94,ENE,67,3.1,-999.0,98,-99.99,,,2.59,Acu-Link.com,2013-01-15 03:03:00,
2013-01-14 21:18:00,39.0,38.5,29.93,ENE,67,5.8,-999.0,98,-99.99,,,2.59,Acu-Link.com,2013-01-15 03:18:00,
2013-01-14 21:34:00,39.2,38.7,29.93,NE,45,3.8,-999.0,98,-99.99,,,2.59,Acu-Link.com,2013-01-15 03:34:00,
2013-01-14 21:49:00,39.4,38.9,29.93,NE,45,6.7,-999.0,98,-99.99,,,2.59,Acu-Link.com,2013-01-15 03:49:00,
2013-01-14 22:04:00,39.2,38.7,29.92,NE,45,1.6,-999.0,98,-99.99,,,2.59,Acu-Link.com,2013-01-15 04:04:00,
2013-01-14 22:19:00,39.6,39.0,29.92,North,0,4.7,-999.0,98,-99.99,,,2.59,Acu-Link.com,2013-01-15 04:19:00,
2013-01-14 22:35:00,39.6,39.0,29.92,East,90,3.1,-999.0,98,-99.99,,,2.59,Acu-Link.com,2013-01-15 04:35:00,
2013-01-14 22:50:00,39.6,39.0,29.92,NE,45,4.7,-999.0,98,-99.99,,,2.60,Acu-Link.com,2013-01-15 04:50:00,
2013-01-14 23:05:00,39.6,39.0,29.92,ENE,67,5.1,-999.0,98,-99.99,,,2.60,Acu-Link.com,2013-01-15 05:05:00,
2013-01-14 23:21:00,39.4,38.9,29.91,ENE,67,4.3,-999.0,98,-99.99,,,2.60,Acu-Link.com,2013-01-15 05:21:00,
2013-01-14 23:36:00,39.6,39.0,29.90,East,90,3.1,-999.0,98,-99.99,,,2.60,Acu-Link.com,2013-01-15 05:36:00,
2013-01-14 23:51:00,39.6,39.0,29.91,ENE,67,3.8,-999.0,98,-99.99,,,2.60,Acu-Link.com,2013-01-15 05:51:00,